Date,TemperatureHighF,TemperatureAvgF,TemperatureLowF,DewpointHighF,DewpointAvgF,DewpointLowF,HumidityHigh,HumidityAvg,HumidityLow,PressureMaxIn,PressureMinIn,WindSpeedMaxMPH,WindSpeedAvgMPH,GustSpeedMaxMPH,PrecipitationSumIn
2013-2-1,62,51,44,49,44,40,90,76,57,30.36,30.27,7,0,10,0.00
2013-2-2,61,50,44,50,45,41,93,82,62,30.43,30.35,5,0,7,0.00
2013-2-3,61,48,40,49,43,39,95,84,60,30.40,30.27,8,1,11,0.00
2013-2-4,62,49,40,53,45,38,95,87,66,30.32,30.21,7,1,8,0.01
2013-2-5,55,48,41,48,43,39,94,85,73,30.30,30.21,11,3,15,0.00
2013-2-6,58,47,38,46,41,36,93,80,55,30.34,30.26,9,1,12,0.00
2013-2-7,54,46,39,45,40,35,93,82,56,30.32,30.14,16,3,20,0.03
2013-2-8,53,44,38,42,38,32,94,81,56,30.16,30.09,11,1,16,0.05
2013-2-9,57,46,38,33,30,27,75,56,33,30.24,30.14,3,0,7,0.00
2013-2-10,58,45,34,41,34,28,79,65,48,30.28,30.17,5,0,9,0.00
2013-2-11,61,50,41,37,31,27,77,51,29,30.38,30.22,6,0,8,0.00
2013-2-12,60,47,37,43,36,33,87,69,44,30.51,30.37,5,0,6,0.00
2013-2-13,65,49,38,44,38,34,87,68,39,30.49,30.36,7,0,9,0.00
2013-2-14,68,54,42,48,41,37,84,62,43,30.40,30.30,7,0,11,0.00
2013-2-15,68,57,48,47,41,35,76,56,41,30.42,30.36,5,0,7,0.00
2013-2-16,66,54,46,50,44,40,85,69,47,30.38,30.19,4,0,6,0.00
2013-2-17,65,51,43,47,41,37,93,73,38,30.20,30.11,6,1,8,0.00
2013-2-18,50,46,44,43,40,36,91,80,66,30.17,30.10,15,5,22,0.00
2013-2-19,47,42,37,42,37,32,91,83,65,30.11,29.89,16,3,21,0.33
2013-2-20,58,45,36,40,35,32,87,70,41,30.21,29.99,11,2,15,0.00
2013-2-21,60,46,38,38,35,30,85,66,33,30.32,30.19,8,1,15,0.00
2013-2-22,62,48,38,44,39,34,89,72,41,30.40,30.32,11,2,13,0.00
2013-2-23,58,49,42,45,38,33,90,68,39,30.40,30.30,12,2,16,0.00
2013-2-24,62,49,42,34,27,21,68,44,21,30.41,30.31,5,0,11,0.00
2013-2-25,63,50,41,45,40,30,90,68,45,30.41,30.31,11,1,15,0.00
2013-2-26,68,52,40,39,32,22,85,50,21,30.37,30.27,6,0,8,0.00
2013-2-27,68,53,41,42,37,30,80,55,30,30.51,30.35,8,1,11,0.00
2013-2-28,68,54,44,53,47,41,92,78,53,30.59,30.51,10,1,14,0.00